Location: Siratepeler Tepesi
(39.1042°N, 32.0781°E)
Time: 00:32:49
(UTC+00:00)

Cosmos 2237 Rocket - Pass Details

Date: 11 April 2026
Orbit: 833 x 850 km, 71.0° (Epoch: 11 May)

Event Time Altitude Azimuth Distance (km) Brightness Sun altitude
Exits shadow 19:05:38 36° 38° (NE) 1,323 3.1 -28.6°
Drops below altitude 10° 19:08:57 10° 28° (NNE) 2,478 4.8 -29.1°
Sets 19:11:25 0° 26° (NNE) 3,419 5.6 -29.4°
